Regional Weather Roundup
Issued by NWS Bismarck, ND

Home | Current Version | Previous Version | Text Only | Print | Product List | Glossary On
Versions: 1 2 3 4 5 6 7 8 9 10 11 12 13 14 15 16 17 18 19 20 21 22 23 24 25 26 27 28 29 30 31 32 33 34 35 36 37 38 39 40 41 42 43 44 45 46 47 48 49 50
000
ASUS43 KBIS 211510
RWRBIS

NWR BROADCAST TEXT
NATIONAL WEATHER SERVICE BISMARCK ND
900 AM CST TUE FEB 21 2017

NOTE: "FAIR" INDICATES FEW OR NO CLOUDS BELOW 12,000 FEET WITH NO
SIGNIFICANT WEATHER AND/OR OBSTRUCTIONS TO VISIBILITY.


CITY           SKY/WX    TMP DP  RH WIND       PRES   REMARKS
WILLISTON      FAIR      34  29  82 CALM      29.66S
MINOT          FLURRIES  34  30  85 S5        29.64S
MINOT AFB      FAIR      28  26  90 CALM      29.64S
BISMARCK       FAIR      33  30  88 SE5       29.70R
DICKINSON      FAIR      39  30  70 SW6       29.68R
GARRISON         N/A     31  27  85 SW6       29.67R
HETTINGER ARPT PTSUNNY   36  30  79 CALM      29.74R
JAMESTOWN      FAIR      35  31  85 W6        29.65S
CARRINGTON     FAIR      34  30  86 W9        29.67F
HAZEN            N/A    N/A N/A N/A W6        29.70S
MANDAN         FAIR      37  32  81 W12       29.69F
RUGBY            N/A     27  25  93 E8        29.66S WCI  18
STANLEY        FAIR      32  32 100 SW3       29.67S
TIOGA          FAIR      32  32 100 SW5       29.67R
WATFORD CITY   FAIR      32  28  86 SW10      29.68S
$$

CITY           SKY/WX    TMP DP  RH WIND       PRES   REMARKS
GRAND FORKS    FAIR      33  29  85 SE7       29.70F FOG
GRAND FORKS AF FAIR      32  32  99 SE3       29.70S FOG
DEVILS LAKE    FAIR      31  29  92 SE5       29.66S
FARGO          FAIR      39  33  79 S10       29.69S
CAVALIER       FOG       32  32 100 SE7       29.71F VSB<1/4
GWINNER        FAIR      39  36  87 SW9       29.69S
ROLLA          FAIR      28  28 100 N3        29.67S
$$

CITY           SKY/WX    TMP DP  RH WIND       PRES   REMARKS
ABERDEEN       FAIR      38  31  76 S5        29.72R
MOBRIDGE       FAIR      41  32  70 N6        29.69R
BUFFALO          N/A     48  34  58 W7        29.66S
RAPID CITY     FAIR      56  34  43 N5        29.75S
GLASGOW        FAIR      36  32  85 CALM      29.65F
SIDNEY         FAIR      30  28  92 CALM      29.69R
WOLF POINT     FAIR      26  24  92 SE5       29.66F
GLENDIVE       FAIR      37  32  82 S5        29.71R
MILES CITY     LGT RAIN  41  35  79 S5        29.73R
BAKER          FAIR      37  30  75 NW3       29.72S
$$

CITY           SKY/WX    TMP DP  RH WIND       PRES   REMARKS
BILLINGS       MOCLDY    44  32  62 W9        29.70R
GREAT FALLS    MOCLDY    37  31  78 S5        29.61F
REGINA         MOCLDY    32  30  93 NE12      29.64R
ESTEVAN        PTCLDY    28  28 100 S7        29.64R
$$





USA.gov is the U.S. government's official web portal to all federal, state and local government web resources and services.